User: anonymous   Login
Location: Unspecified
(0.0000°N, 0.0000°E)
Time: 18:54:19
(UTC+00:00)
Language:

FAISAT - Orbit

View from above orbital plane
View from above orbital plane
View from above satellite
View from above satellite

Ground track
Ground track

The orbit data is extracted from the following two-line orbital elements,

1 23465U 95002C   17145.94584083 +.00000013 +00000-0 -20047-5 0  9998
2 23465 082.9255 307.1936 0037200 350.4323 121.1832 13.71875182118173
Epoch (UTC): 25 May 2017 22:42:00
Eccentricity: 0.0037200
inclination: 82.9255°
perigee height: 965 km
apogee height: 1020 km
right ascension of ascending node: 307.1936°
argument of perigee: 350.4323°
revolutions per day: 13.71875182
mean anomaly at epoch: 121.1832°
orbit number at epoch: 11817

The dashed part of the orbit path shows where the satellite is in the earth's shadow,  

DLR